Location: Aiyekoto
(8.4333°N, 4.3667°E)
Time: 12:11:59
(UTC+00:00)

SR - Visible Passes

Search period start: 26 September 2020 00:00
Search period end: 06 October 2020 00:00
Orbit: 583 x 873 km, 66.7° (Epoch: 26 September)

Date Brightness Start Highest point End Pass type
(mag) Time Alt. Az. Time Alt. Az. Time Alt. Az.
26 Sep ? 19:07:35 10° N 19:08:32 15° NNE 19:08:32 15° NNE visible
27 Sep ? 18:20:34 10° NE 18:21:25 11° ENE 18:21:25 11° ENE visible
27 Sep ? 19:59:14 10° NW 20:00:56 21° NW 20:00:56 21° NW visible
28 Sep ? 19:09:25 10° NNW 19:14:14 67° NE 19:14:14 67° NE visible
29 Sep ? 18:20:35 10° NNE 18:24:59 28° ENE 18:28:06 17° ESE visible
29 Sep ? 20:02:52 10° WNW 20:06:49 21° WSW 20:07:42 20° WSW visible
30 Sep ? 19:12:02 10° NW 19:17:08 52° WSW 19:22:37 10° S visible
01 Oct ? 18:22:19 10° N 18:27:30 64° ENE 18:33:04 10° SSE visible
02 Oct ? 19:15:33 10° WNW 19:19:42 23° WSW 19:24:04 10° SSW visible
03 Oct ? 18:24:52 10° NNW 18:30:02 56° WSW 18:35:35 10° S visible
05 Oct ? 18:28:15 10° NW 18:32:35 25° WSW 18:37:10 10° SSW visible
